Location: Unspecified
(0.0000°N, 0.0000°E)
Time: 07:20:15
(UTC+00:00)

RS-15 - Visible Passes

Search period start: 17 February 2020 00:00
Search period end: 27 February 2020 00:00
Orbit: 1899 x 2145 km, 64.8° (Epoch: 16 February)

Date Brightness Start Highest point End Pass type
(mag) Time Alt. Az. Time Alt. Az. Time Alt. Az.
17 Feb 8.9 20:27:07 10° SW 20:37:30 40° WNW 20:47:34 10° N visible
18 Feb 8.4 19:50:22 10° SW 20:01:34 58° WNW 20:12:19 10° N visible
19 Feb 10.1 05:22:58 10° NNE 05:30:28 19° ENE 05:38:05 10° ESE visible
19 Feb 8.1 19:14:03 10° SSW 19:25:38 80° WNW 19:36:42 10° NNE visible
20 Feb 10.4 04:51:16 10° NE 04:54:19 11° ENE 04:57:24 10° E visible
20 Feb 8.0 18:38:07 10° SSW 18:49:42 75° ESE 19:00:43 10° NNE visible
20 Feb 10.0 20:55:26 10° WSW 21:01:39 16° WNW 21:07:48 10° NNW visible
21 Feb 9.6 20:16:51 10° WSW 20:25:35 26° WNW 20:34:10 10° NNW visible
22 Feb 9.3 05:43:49 10° N 05:54:36 45° ENE 06:05:46 10° SE visible
22 Feb 9.2 19:39:24 10° SW 19:49:36 38° WNW 19:59:31 10° N visible
23 Feb 9.7 05:08:55 10° N 05:18:38 31° ENE 05:28:36 10° SE visible
23 Feb 8.7 19:02:35 10° SW 19:13:40 55° WNW 19:24:20 10° N visible
24 Feb 10.0 04:34:43 10° NNE 04:42:36 21° ENE 04:50:37 10° ESE visible
24 Feb 8.3 18:26:12 10° SSW 18:37:44 77° WNW 18:48:46 10° NNE visible
25 Feb 10.3 04:02:18 10° NE 04:06:28 12° ENE 04:10:40 10° E visible
25 Feb 10.1 20:08:07 10° W 20:13:47 15° WNW 20:19:23 10° NW visible
26 Feb 8.6 05:31:13 10° NNW 05:42:39 67° ENE 05:54:35 10° SSE visible
26 Feb 9.9 19:29:15 10° WSW 19:37:43 24° WNW 19:46:00 10° NNW visible
